DEHHC EDXW-ZZZZ

Flight info

Callsign DEHHC
Flight time N/A
Altitude
Route
Aircraft DA40

Departure

Time 2026-05-08 16:38
Airport Westerland Sylt Airport (EDXW)

Arrival

Time N/A
Airport ZZZZ
Time Latitude Longitude Altitude Speed Heading
2026-05-08 16:33 54.91246 8.32524 26 ft 0 kts 60°
2026-05-08 16:36 54.91215 8.32622 28 ft 21 kts 132°
2026-05-08 16:36 54.91130 8.32775 33 ft 12 kts 134°
2026-05-08 16:36 54.91074 8.32896 35 ft 21 kts 128°
2026-05-08 16:36 54.91024 8.33155 31 ft 34 kts 72°
2026-05-08 16:37 54.91206 8.33673 77 ft 64 kts 64°
2026-05-08 16:37 54.91452 8.34350 261 ft 74 kts 63°
2026-05-08 16:37 54.91581 8.35253 400 ft 83 kts 126°
2026-05-08 16:37 54.91086 8.35825 605 ft 92 kts 146°
2026-05-08 16:38 54.90460 8.35631 817 ft 103 kts 212°
2026-05-08 16:38 54.90103 8.34662 756 ft 95 kts 242°
2026-05-08 16:38 54.89981 8.33568 769 ft 99 kts 301°
2026-05-08 16:38 54.90416 8.32685 545 ft 91 kts 321°
2026-05-08 16:39 54.90907 8.32802 121 ft 67 kts 58°
2026-05-08 16:39 54.91096 8.33358 34 ft 43 kts 60°
2026-05-08 16:39 54.91273 8.33869 98 ft 55 kts 68°
2026-05-08 16:39 54.91478 8.34482 216 ft 62 kts 64°
2026-05-08 16:40 54.91640 8.34913 288 ft 65 kts 62°
2026-05-08 16:40 54.91450 8.35300 434 ft 65 kts 144°
2026-05-08 16:40 54.90989 8.35771 553 ft 87 kts 144°
2026-05-08 16:40 54.90367 8.35961 740 ft 107 kts 213°
2026-05-08 16:41 54.89992 8.34802 812 ft 106 kts 250°
2026-05-08 16:41 54.89908 8.33554 828 ft 108 kts 317°
2026-05-08 16:41 54.90526 8.32720 473 ft 115 kts 337°
2026-05-08 16:42 54.91272 8.33866 40 ft 62 kts 65°
2026-05-08 16:42 54.91500 8.34563 166 ft 75 kts 66°
2026-05-08 16:42 54.91697 8.35362 406 ft 71 kts 94°
2026-05-08 16:42 54.91498 8.36151 624 ft 79 kts 146°
2026-05-08 16:43 54.91475 8.35529 709 ft 87 kts 21°
2026-05-08 16:43 54.91319 8.35792 910 ft 89 kts 239°
2026-05-08 16:43 54.91763 8.35586 890 ft 84 kts 42°
2026-05-08 16:43 54.91615 8.35924 922 ft 77 kts 207°
2026-05-08 16:44 54.91814 8.35487 853 ft 77 kts 79°
2026-05-08 16:44 54.91365 8.35909 773 ft 84 kts 167°
2026-05-08 16:44 54.90809 8.35841 656 ft 85 kts 196°
2026-05-08 16:44 54.90379 8.35093 700 ft 86 kts 233°
2026-05-08 16:45 54.90125 8.34010 771 ft 103 kts 250°
2026-05-08 16:45 54.90065 8.32797 870 ft 95 kts 315°
2026-05-08 16:45 54.90604 8.32458 476 ft 84 kts 17°
2026-05-08 16:45 54.90994 8.33043 56 ft 67 kts 53°
2026-05-08 16:46 54.91182 8.33604 30 ft 56 kts 59°
2026-05-08 16:46 54.91415 8.34302 144 ft 73 kts 68°
2026-05-08 16:46 54.91680 8.35092 357 ft 76 kts 61°
2026-05-08 16:46 54.91481 8.35742 496 ft 85 kts 151°
2026-05-08 16:47 54.90913 8.36002 714 ft 89 kts 169°
2026-05-08 16:47 54.90359 8.35298 838 ft 110 kts 224°
2026-05-08 16:47 54.89978 8.34224 991 ft 99 kts 235°
2026-05-08 16:47 54.89830 8.33085 862 ft 103 kts 255°
2026-05-08 16:48 54.89766 8.32775 805 ft 106 kts 271°
2026-05-08 16:48 54.89721 8.32824 912 ft 86 kts 335°
2026-05-08 16:48 54.89737 8.32627 894 ft 87 kts 359°
2026-05-08 16:48 54.89706 8.32450 987 ft 70 kts 47°
2026-05-08 16:49 54.90173 8.31905 965 ft 102 kts 296°
2026-05-08 16:49 54.90116 8.30623 872 ft 105 kts 256°
2026-05-08 16:49 54.89762 8.29773 733 ft 73 kts 161°
2026-05-08 16:49 54.89793 8.30378 806 ft 79 kts 23°
2026-05-08 16:50 54.89960 8.29737 920 ft 75 kts 191°
2026-05-08 16:50 54.89835 8.30173 892 ft 61 kts 65°
2026-05-08 16:50 54.90192 8.30577 838 ft 93 kts 319°
2026-05-08 16:50 54.90162 8.30549 724 ft 86 kts 45°
2026-05-08 16:51 54.90053 8.31124 783 ft 84 kts 173°
2026-05-08 16:51 54.89926 8.30566 729 ft 85 kts 20°
2026-05-08 16:51 54.90329 8.31069 689 ft 73 kts 15°
2026-05-08 16:51 54.90601 8.31547 501 ft 74 kts 82°
2026-05-08 16:52 54.90756 8.32349 288 ft 61 kts 91°
2026-05-08 16:52 54.90949 8.32922 106 ft 52 kts 68°
2026-05-08 16:52 54.91114 8.33396 31 ft 40 kts 69°
2026-05-08 16:52 54.91311 8.33978 119 ft 64 kts 66°
2026-05-08 16:53 54.91199 8.35289 570 ft 73 kts 150°
2026-05-08 16:53 54.90696 8.35692 681 ft 87 kts 164°
2026-05-08 16:53 54.90227 8.34956 796 ft 108 kts 236°
2026-05-08 16:54 54.89943 8.33736 921 ft 105 kts 247°
2026-05-08 16:54 54.89688 8.32589 941 ft 101 kts 239°
2026-05-08 16:54 54.89403 8.31496 975 ft 100 kts 237°
2026-05-08 16:54 54.89337 8.30329 1015 ft 100 kts 315°
2026-05-08 16:55 54.89851 8.30339 941 ft 72 kts 31°
2026-05-08 16:55 54.90232 8.30836 760 ft 70 kts 58°
2026-05-08 16:55 54.90469 8.31546 519 ft 70 kts 67°
2026-05-08 16:55 54.90726 8.32255 323 ft 72 kts 62°
2026-05-08 16:56 54.90986 8.33023 112 ft 71 kts 67°
2026-05-08 16:56 54.91213 8.33675 35 ft 52 kts 70°
2026-05-08 16:56 54.91336 8.33995 34 ft 14 kts 342°
2026-05-08 16:56 54.91419 8.33904 36 ft 12 kts 322°
2026-05-08 16:57 54.91506 8.33795 36 ft 16 kts 319°
2026-05-08 16:57 54.91596 8.33681 39 ft 20 kts 331°
2026-05-08 16:57 54.91694 8.33462 39 ft 23 kts 292°
2026-05-08 16:57 54.91736 8.33200 35 ft 14 kts 245°
2026-05-08 16:58 54.91638 8.33182 32 ft 18 kts 178°
2026-05-08 16:58 54.91507 8.33183 28 ft 28 kts 178°
2026-05-08 16:58 54.91323 8.33233 26 ft 17 kts 209°
2026-05-08 16:58 54.91235 8.33180 30 ft 14 kts 179°
2026-05-08 16:59 54.91146 8.33189 30 ft 17 kts 184°
2026-05-08 16:59 54.91035 8.33105 31 ft 21 kts 246°
2026-05-08 16:59 54.91071 8.32896 35 ft 20 kts 316°
2026-05-08 16:59 54.91243 8.32589 27 ft 27 kts 332°
2026-05-08 17:00 54.91248 8.32527 26 ft 0 kts 56°